Theta_e
305 305 305 306 307 309 314 313 316 319 320 314 306 310 311 316 317 316 315 316 315 318 318 320 319 319 321 322 320 316 317 325 341 341 334 336 338 338 337 340 344 341 337 340
305 305 305 306 306 307 315 318 318 317 319 313 309 309 313 313 313 312 313 314 314 314 317 319 320 323 322 322 322 323 317 317 328 337 336 336 339 339 336 336 337 343 342 338
305 305 305 306 306 306 314 316 313 316 315 311 309 311 311 312 313 312 313 311 314 316 315 314 319 317 319 318 325 325 324 312 327 332 336 336 340 341 340 339 342 342 340 339
305 304 304 305 306 306 313 313 308 310 310 310 307 307 309 311 311 311 312 312 313 316 315 314 314 314 314 320 321 320 314 316 316 318 328 336 338 341 342 341 339 342 339 342
304 303 304 305 305 306 312 312 311 311 309 308 308 307 309 311 311 311 311 311 312 311 312 312 314 313 314 317 317 319 315 316 316 319 318 332 340 339 342 342 339 339 339 340
303 303 304 304 304 305 309 310 310 311 306 306 307 308 310 311 309 311 311 311 311 312 313 313 313 313 313 313 315 316 317 315 315 320 321 331 340 339 340 340 339 340 343 340
303 303 303 304 304 303 307 308 309 309 303 307 308 311 311 311 309 310 310 311 311 312 312 313 313 312 311 310 310 314 318 316 312 317 331 341 330 333 338 337 339 339 339 337
303 303 303 304 303 303 303 308 308 309 304 306 308 310 310 310 309 309 309 310 310 310 312 310 309 311 316 317 312 310 314 316 316 319 328 328 324 333 338 338 339 337 339 339
302 303 303 304 304 303 302 304 308 308 306 302 308 308 309 308 307 307 309 310 310 311 308 311 310 312 315 319 323 310 313 309 315 314 322 327 325 329 337 334 340 335 337 337
302 302 303 304 305 304 302 302 303 307 308 308 308 307 308 308 308 306 307 310 308 312 307 310 313 315 318 320 324 318 313 314 320 316 320 321 320 321 337 341 337 336 337 337
302 303 303 304 305 306 306 304 302 303 306 306 306 308 308 308 307 306 308 306 307 309 309 310 312 314 315 319 320 323 318 316 317 317 321 322 323 330 337 329 329 332 333 334
302 302 303 304 304 305 306 306 306 305 303 304 305 304 306 307 307 306 308 307 306 308 310 310 310 317 316 317 319 318 321 320 322 317 319 320 324 325 325 327 327 327 329 329
302 302 303 304 304 304 305 306 306 307 305 306 305 306 306 306 305 308 308 308 309 310 310 308 306 310 312 317 319 316 320 317 321 324 322 322 327 326 330 331 330 333 333 332
302 302 303 304 305 305 307 307 307 307 306 305 306 305 306 306 306 306 306 306 308 308 309 309 305 308 309 310 311 310 314 315 319 321 322 326 327 327 330 331 335 335 334 333
303 303 305 305 304 304 307 307 306 306 307 305 306 306 307 307 306 306 307 306 306 307 308 306 306 307 308 307 308 309 311 314 321 322 321 319 319 323 328 325 332 329 331 335
303 305 305 305 305 307 307 305 308 308 307 307 306 306 306 307 307 307 307 307 307 307 308 307 309 310 309 306 307 307 309 310 311 314 314 316 316 317 324 324 326 324 328 334
304 304 305 305 306 305 306 306 307 307 307 306 307 302 305 305 305 308 307 306 307 307 307 307 308 309 309 304 309 307 308 308 309 310 311 311 311 315 322 318 318 321 329 334
304 304 305 305 306 307 308 307 307 306 307 307 303 303 305 308 309 310 309 309 307 307 307 307 308 308 309 312 309 309 309 308 308 309 309 309 310 309 311 311 313 318 328 335
304 305 305 307 308 307 307 308 308 306 307 306 304 307 305 308 308 310 312 309 309 308 306 306 309 310 311 310 309 309 309 309 309 309 309 309 309 309 308 308 310 315 327 335
305 307 309 307 309 309 309 309 308 307 308 307 307 306 305 307 308 309 311 311 312 312 311 309 310 309 309 309 310 310 309 309 309 309 309 309 309 309 308 309 313 318 327 334
308 307 308 309 308 308 309 308 309 307 308 307 307 307 308 307 308 309 309 312 313 315 311 311 313 312 311 309 309 309 309 309 309 309 309 309 309 310 309 312 316 324 328 333
305 305 305 305 305 305 307 310 310 309 310 309 307 308 307 308 308 308 310 312 312 315 312 313 314 314 313 313 311 310 309 309 309 309 309 309 310 310 310 310 315 325 329 340
305 305 306 307 306 307 310 311 309 310 310 311 311 313 309 307 307 309 312 313 314 312 315 314 313 313 313 313 313 312 311 309 309 309 310 310 309 309 310 313 326 328 335 349
305 305 307 308 309 307 310 307 310 312 314 312 312 312 314 311 311 311 315 317 318 320 316 314 314 317 322 318 315 313 310 310 310 310 309 309 309 310 320 326 328 327 348 355
306 306 309 309 308 309 308 308 309 310 310 311 311 312 315 315 314 316 317 318 321 321 324 322 320 321 323 317 314 311 310 309 309 309 310 309 314 317 326 325 328 347 357 353
307 307 308 307 308 308 308 310 310 309 310 311 311 314 318 317 316 315 316 317 318 319 318 317 319 322 322 320 314 312 311 310 310 310 313 323 326 324 329 341 349 355 356 357
307 307 307 307 307 307 307 308 309 310 310 312 314 318 319 316 317 315 316 312 314 316 317 319 322 322 323 327 320 314 312 312 316 326 324 325 329 332 342 347 346 343 343 354
Wind_Speed
24 23 23 24 25 22 14 2 2 2 6 3 2 3 3 4 5 12 5 2 5 3 3 2 2 4 1 12 2 8 7 6 4 10 4 6 1 6 6 5 5 2 2 6
24 24 22 21 23 22 19 7 1 4 6 2 2 4 3 3 7 6 7 6 5 6 4 3 4 5 2 17 5 2 4 2 2 6 6 2 5 5 4 6 3 6 4 5
22 24 23 20 20 17 15 5 2 4 3 5 4 2 2 3 7 4 4 4 3 5 6 7 3 6 3 11 7 5 7 3 8 10 8 5 6 6 6 7 4 5 6 3
20 21 21 19 18 14 10 6 1 1 2 4 3 2 2 2 4 6 12 6 5 2 4 4 4 5 6 3 13 8 4 3 3 5 6 7 7 9 13 9 8 7 7 10
18 19 20 20 17 11 6 3 3 1 1 2 0 3 1 1 3 3 3 5 5 4 4 1 1 3 2 3 7 6 4 3 2 4 6 10 4 10 17 16 2 7 4 6
16 17 17 18 17 13 6 4 3 2 2 2 2 2 2 2 1 6 7 3 4 4 1 8 14 15 14 9 4 3 3 2 3 4 5 5 5 14 13 10 6 7 7 11
14 15 15 15 15 14 9 8 4 2 3 1 1 1 2 2 3 0 2 5 3 2 8 14 12 16 21 13 15 14 2 2 2 3 2 5 8 7 18 19 14 14 3 6
13 13 13 12 11 11 8 7 4 3 1 2 3 0 1 2 1 1 1 2 2 6 7 2 4 3 4 5 9 10 14 4 1 3 3 5 5 5 10 8 13 13 14 8
12 11 11 11 10 9 8 5 5 3 1 3 1 0 0 1 0 4 0 4 5 2 2 2 6 5 5 4 0 3 6 3 2 3 4 6 7 4 23 6 12 7 13 7
11 10 10 9 8 8 8 4 5 3 3 2 5 3 3 3 2 1 2 5 1 1 2 2 4 4 3 4 5 5 4 3 11 3 4 7 8 6 16 10 9 21 19 13
11 10 9 8 7 7 7 5 5 4 4 12 13 8 8 5 4 3 1 2 1 2 2 3 3 3 3 2 4 5 6 7 5 3 5 8 3 2 7 8 24 18 20 13
11 10 9 7 7 8 8 5 8 10 8 10 19 18 14 13 20 11 6 2 3 3 3 1 1 2 2 0 4 4 3 4 3 8 6 3 9 12 12 15 17 19 25 27
11 10 9 8 8 8 11 13 11 11 7 15 8 2 3 8 24 15 5 6 5 2 2 4 2 4 2 3 4 4 3 5 3 2 4 2 17 6 21 26 28 29 23 23
11 9 8 8 9 9 11 14 14 12 6 4 4 4 6 22 17 19 31 24 7 4 1 1 2 2 4 2 3 3 4 7 2 6 9 15 6 17 28 32 27 29 30 26
9 8 8 9 10 11 13 15 18 16 10 3 12 28 2 10 9 17 17 24 29 18 2 1 3 4 1 2 1 5 7 6 4 4 0 3 11 20 30 38 30 38 38 35
9 9 10 10 11 10 12 5 2 3 11 4 3 7 8 6 7 14 25 17 19 19 9 7 7 6 9 4 4 12 24 25 27 19 26 31 38 37 37 27 35 41 41 32
9 10 11 12 10 12 8 6 6 7 3 3 5 7 3 8 3 7 15 23 20 18 12 10 10 10 15 3 13 7 21 28 34 35 33 35 47 18 28 36 45 44 40 31
10 11 13 12 13 12 12 2 10 12 5 4 2 4 6 2 2 4 10 10 13 11 12 5 13 13 9 8 28 33 42 39 36 32 30 34 48 47 46 46 43 46 41 29
10 12 13 14 5 4 3 3 5 11 9 3 5 2 3 3 3 3 4 9 3 9 4 6 9 7 9 22 23 31 32 34 30 30 31 40 44 43 46 47 44 43 41 30
9 8 4 3 2 4 4 4 4 8 7 6 4 7 3 3 2 3 4 6 3 3 6 10 6 14 45 45 37 31 36 42 33 29 32 39 39 37 42 42 41 40 41 36
1 2 3 4 6 4 3 3 4 6 3 6 6 14 9 8 5 4 5 2 3 4 4 6 4 6 21 48 50 47 43 37 37 43 43 41 37 34 38 41 39 39 39 36
4 7 12 8 4 3 3 3 4 4 4 6 5 7 13 6 10 5 5 3 3 6 5 4 5 11 19 26 31 47 56 47 42 43 46 43 44 42 40 42 43 42 39 32
8 2 2 3 4 3 5 4 3 3 5 6 4 3 5 7 9 6 4 5 6 3 4 4 7 27 42 48 45 39 46 51 49 47 45 42 45 39 39 41 40 38 36 23
2 2 4 3 4 5 4 3 1 6 5 14 14 7 6 8 5 3 4 4 3 4 4 6 8 31 29 22 29 35 37 46 49 47 41 41 37 36 34 37 38 38 25 14
3 4 4 5 8 8 8 9 13 13 16 13 11 9 7 3 3 3 4 4 5 4 4 11 31 36 26 9 16 29 33 40 41 39 39 33 31 35 38 37 34 20 13 12
5 6 4 6 5 10 13 5 11 16 8 13 7 4 3 4 1 3 4 5 4 6 8 35 43 31 26 14 12 19 20 27 31 29 26 28 31 33 29 23 10 10 8 8
4 6 11 14 16 16 22 19 15 8 6 3 2 4 2 3 2 3 2 4 5 24 33 34 36 33 30 19 14 14 17 23 25 24 28 22 22 23 18 12 11 7 6 7
Wind_Direction
346 349 348 345 344 351 352 27 75 164 165 47 41 148 212 330 337 9 10 87 13 30 64 114 99 127 59 350 237 147 202 142 166 207 201 174 198 164 154 135 196 211 146 277
345 347 350 349 347 354 360 357 36 38 191 130 316 310 307 26 9 18 0 34 30 20 53 101 56 3 345 17 67 96 181 192 74 348 350 75 207 162 130 101 75 184 154 276
345 346 348 351 348 352 359 357 8 35 89 74 116 14 358 23 29 52 58 18 53 53 30 12 70 5 322 336 13 20 160 126 167 209 212 159 182 183 180 128 133 174 214 243
345 346 348 352 353 352 360 19 79 66 312 16 42 33 350 9 26 19 27 22 46 80 52 23 33 357 323 358 2 18 82 144 237 259 246 179 190 181 181 190 193 181 200 202
344 346 348 352 359 357 10 36 28 11 79 321 20 8 337 94 349 32 13 84 20 61 109 174 234 27 303 285 333 13 351 165 196 262 254 192 227 212 188 210 147 276 164 251
342 345 351 354 359 11 34 44 34 340 352 21 108 215 168 114 283 72 81 142 129 100 170 294 274 268 266 264 343 305 22 37 47 260 327 132 260 211 192 212 194 157 180 222
341 345 351 355 358 8 20 23 5 351 278 35 174 33 15 52 2 130 69 77 116 166 309 299 276 261 260 249 252 223 291 32 115 248 4 206 242 215 195 207 216 200 189 186
336 340 347 355 356 356 4 6 16 358 295 244 289 261 1 334 329 50 121 101 324 317 315 25 341 320 305 232 217 204 204 143 253 180 230 278 266 197 177 170 250 208 222 217
329 335 342 353 356 352 346 335 353 352 21 251 106 101 28 201 332 349 354 230 327 284 122 124 198 212 216 258 318 6 147 88 157 139 180 222 243 300 206 87 257 240 203 196
321 327 333 343 354 356 348 330 325 310 282 262 231 204 180 166 131 150 294 327 325 53 123 166 184 233 241 212 194 184 129 155 211 200 226 282 252 275 140 160 239 244 244 202
312 318 324 330 341 354 355 345 340 327 266 273 257 246 210 176 185 156 244 7 306 38 126 168 219 203 245 287 251 193 169 154 182 148 196 248 339 48 133 303 332 326 325 304
307 307 313 315 325 330 333 323 311 307 281 272 285 275 255 250 252 247 216 224 194 199 96 235 100 256 301 224 232 321 247 196 201 187 204 216 3 339 351 359 335 331 326 321
304 303 301 302 310 315 312 310 313 317 297 300 285 316 316 241 232 207 205 222 220 204 169 160 190 239 143 202 240 302 223 29 224 334 253 261 325 29 352 347 334 325 328 339
304 301 297 300 305 306 298 300 305 300 291 283 292 331 304 299 282 230 226 236 237 191 182 27 171 219 192 251 285 244 253 333 256 272 287 324 176 348 344 338 332 335 329 325
298 296 299 304 308 303 297 298 292 274 252 274 295 302 286 351 233 220 219 222 226 235 225 157 225 227 197 248 283 240 204 212 196 239 272 260 289 308 322 327 324 329 330 319
291 295 301 302 307 302 316 307 310 351 216 269 298 307 292 329 252 219 217 217 219 214 199 206 224 196 191 217 241 239 236 240 248 261 278 290 287 297 297 300 308 320 322 312
289 298 298 300 296 293 285 273 289 327 261 269 290 305 274 304 274 201 209 216 219 214 219 226 206 197 205 238 249 188 224 236 241 248 266 283 278 279 284 296 307 312 316 308
295 297 297 295 296 290 278 306 256 241 208 243 280 276 313 280 243 218 198 197 208 218 225 212 208 210 211 249 241 237 241 244 248 243 248 264 272 283 283 290 296 304 313 317
301 295 300 298 274 239 249 254 246 209 224 247 196 245 273 306 276 273 237 213 197 225 211 197 188 193 222 235 241 230 228 226 236 247 256 261 266 274 276 281 287 293 303 310
298 301 285 283 279 276 280 274 197 182 210 226 242 201 259 238 227 281 284 209 225 254 215 186 230 236 238 241 237 231 226 227 225 230 243 250 259 265 270 277 278 286 296 305
271 261 248 269 288 307 255 263 184 182 238 219 249 224 231 237 210 217 227 269 233 249 221 193 239 252 232 240 238 238 238 231 224 235 252 257 260 262 268 269 274 282 292 297
272 276 282 272 230 227 264 235 169 213 238 201 205 239 211 225 206 215 221 241 229 254 162 234 253 261 266 260 244 234 232 228 224 228 240 250 254 258 265 268 275 281 290 296
295 269 249 220 180 233 229 200 223 227 209 203 217 252 215 186 198 222 242 225 235 231 223 244 258 279 275 268 238 234 232 220 220 226 232 240 250 253 257 267 273 284 294 286
265 233 242 220 201 230 220 202 282 307 308 327 325 294 224 192 178 240 253 253 257 256 242 244 259 296 319 304 218 212 213 209 212 219 225 235 243 246 252 260 272 287 281 283
254 227 245 232 248 277 286 298 298 292 310 313 312 275 221 175 251 236 273 258 256 260 282 306 310 321 349 17 173 190 197 201 204 212 221 220 227 243 254 268 283 283 273 258
234 232 254 260 283 274 278 264 283 300 291 312 249 264 241 208 211 270 261 293 272 297 300 309 312 334 0 49 152 178 189 193 192 199 201 213 234 253 270 295 273 247 243 247
227 237 241 252 271 272 272 279 271 271 283 251 277 260 195 128 205 242 214 245 253 298 309 322 341 353 360 41 112 128 158 181 166 193 209 233 250 272 278 260 245 242 260 279